FW0135 Weather Reports


Display with metric or nautical units.
time (UTC)temp
F
wind
direction
speed
MPH
gust
MPH
rain 1hr
in
rain 24hr
in
rain mn
in
humidity
%
barometer
mb
20260831201711 77 75 0.0 0.0 0.00 0.01 0.01 51 1003.6
20260831200712 76 51 0.0 1.0 0.00 0.01 0.01 52 1003.6
20260831200206 76 51 0.0 1.0 0.00 0.01 0.01 52 1003.7
20260831195700 76 84 0.0 2.0 0.00 0.01 0.01 49 1003.7
20260831195154 76 84 0.0 2.0 0.00 0.01 0.01 50 1003.7
20260831194141 76 84 0.0 0.0 0.00 0.01 0.01 49 1003.8
20260831193129 76 82 0.0 0.0 0.00 0.01 0.01 52 1003.9
20260831192624 76 82 0.0 0.0 0.00 0.01 0.01 51 1003.9
20260831192118 76 80 0.0 0.0 0.00 0.01 0.01 57 1003.9
20260831191612 76 80 0.0 0.0 0.00 0.01 0.01 55 1003.9
20260831191106 76 80 0.0 0.0 0.00 0.01 0.01 57 1003.9
20260831190600 76 80 0.0 0.0 0.00 0.01 0.01 56 1003.9
20260831185547 76 81 0.0 0.0 0.00 0.01 0.01 55 1004.1
20260831185042 76 89 0.0 0.0 0.00 0.01 0.01 52 1004.1
20260831183524 76 87 0.0 0.0 0.00 0.01 0.01 51 1004.2
20260831183018 76 87 0.0 0.0 0.00 0.01 0.01 51 1004.3
20260831182512 76 87 0.0 0.0 0.00 0.01 0.01 48 1004.4
20260831182006 76 80 0.0 0.0 0.00 0.01 0.01 53 1004.6
20260831180954 75 44 0.0 0.0 0.00 0.01 0.01 54 1004.5
20260831180448 75 44 0.0 0.0 0.00 0.01 0.01 54 1004.4
20260831175941 75 44 0.0 0.0 0.00 0.01 0.01 55 1004.4
20260831175436 75 44 0.0 0.0 0.00 0.01 0.01 55 1004.5
20260831174930 76 44 0.0 0.0 0.00 0.01 0.01 55 1004.7
20260831174424 76 44 0.0 0.0 0.00 0.01 0.01 57 1004.7
20260831173918 76 44 0.0 0.0 0.00 0.01 0.01 57 1004.8
20260831173412 76 44 0.0 0.0 0.00 0.01 0.01 55 1004.8
20260831172906 76 44 0.0 0.0 0.00 0.01 0.01 56 1004.9
20260831171854 76 51 0.0 0.0 0.00 0.01 0.01 57 1004.9
20260831171348 76 351 0.0 0.0 0.00 0.01 0.01 55 1005.1
20260831170842 76 42 0.0 0.0 0.00 0.01 0.01 61 1005.2
20260831170335 76 42 0.0 0.0 0.00 0.01 0.01 64 1005.3
20260831165324 75 44 0.0 0.0 0.00 0.01 0.01 59 1005.3
20260831164818 74 44 0.0 0.0 0.00 0.01 0.01 67 1005.4
20260831164311 74 44 0.0 0.0 0.00 0.01 0.01 61 1005.5
20260831163805 73 44 0.0 0.0 0.00 0.01 0.01 65 1005.6
20260831163259 73 44 0.0 0.0 0.00 0.01 0.01 66 1005.6
20260831162754 72 44 0.0 0.0 0.00 0.01 0.01 62 1005.7
20260831162249 72 44 0.0 0.0 0.00 0.01 0.01 67 1005.7
20260831161741 71 26 0.0 0.0 0.00 0.01 0.01 67 1005.7
20260831161235 71 26 0.0 0.0 0.00 0.01 0.01 68 1005.7
20260831160730 71 26 0.0 0.0 0.00 0.01 0.01 69 1005.8
20260831160224 70 26 0.0 0.0 0.00 0.01 0.01 70 1005.8
20260831155212 70 26 0.0 0.0 0.00 0.01 0.01 66 1005.8
20260831154706 69 67 0.0 0.0 0.00 0.01 0.01 70 1005.8
20260831154200 69 74 0.0 0.0 0.00 0.01 0.01 68 1005.8
20260831153654 68 74 0.0 0.0 0.00 0.01 0.01 72 1005.8
20260831153153 68 74 0.0 0.0 0.00 0.01 0.01 72 1005.8
20260831152150 68 74 0.0 0.0 0.00 0.01 0.01 72 1006.0
20260831151148 67 74 0.0 0.0 0.00 0.01 0.01 71 1006.0
20260831150647 67 74 0.0 0.0 0.00 0.01 0.01 73 1006.1
20260831150147 67 74 0.0 0.0 0.00 0.01 0.01 76 1006.1
20260831144643 66 74 0.0 0.0 0.00 0.01 0.01 77 1006.3
20260831144140 66 74 0.0 0.0 0.00 0.01 0.01 76 1006.3
20260831143136 65 74 0.0 0.0 0.00 0.01 0.01 73 1006.3
20260831142634 64 74 0.0 0.0 0.00 0.01 0.01 75 1006.4
20260831142133 64 321 0.0 0.0 0.00 0.01 0.01 84 1006.4
20260831141629 63 309 0.0 0.0 0.00 0.01 0.01 85 1006.4
20260831141128 63 309 0.0 0.0 0.00 0.01 0.01 82 1006.3
20260831140628 63 309 0.0 0.0 0.00 0.01 0.01 84 1006.3
20260831140129 62 309 0.0 0.0 0.00 0.01 0.01 84 1006.3
20260831135124 62 309 0.0 0.0 0.00 0.01 0.01 88 1006.3
20260831134623 62 309 0.0 0.0 0.00 0.01 0.01 88 1006.3
20260831134123 61 309 0.0 0.0 0.01 0.01 0.01 88 1006.2
20260831133625 61 309 0.0 0.0 0.01 0.01 0.01 87 1006.1
20260831133124 60 74 0.0 2.0 0.01 0.01 0.01 89 1006.1
20260831132124 60 74 0.0 1.0 0.01 0.01 0.01 90 1006.1
20260831131625 59 74 0.0 1.0 0.01 0.01 0.01 89 1006.1
20260831131121 58 74 0.0 1.0 0.01 0.01 0.01 91 1006.1
20260831130619 58 74 0.0 0.0 0.01 0.01 0.01 92 1006.1
20260831130120 58 74 0.0 1.0 0.01 0.01 0.01 92 1006.1
20260831125619 58 74 0.0 1.0 0.01 0.01 0.01 92 1006.2
20260831124620 57 74 0.0 0.0 0.01 0.01 0.01 93 1006.2
20260831124120 57 74 0.0 0.0 0.00 0.00 0.00 93 1006.1
20260831123619 57 74 0.0 0.0 0.00 0.00 0.00 93 1006.0
20260831123121 57 74 0.0 0.0 0.00 0.00 0.00 93 1006.0
20260831122614 56 74 0.0 0.0 0.00 0.00 0.00 93 1006.1
20260831122108 56 74 0.0 0.0 0.00 0.00 0.00 93 1006.0
20260831121602 56 74 0.0 0.0 0.00 0.00 0.00 93 1006.1
20260831121055 56 74 0.0 0.0 0.00 0.00 0.00 93 1006.1
20260831120043 55 74 0.0 0.0 0.00 0.00 0.00 93 1006.0
20260831115538 55 74 0.0 0.0 0.00 0.00 0.00 93 1006.0
20260831115032 55 74 0.0 0.0 0.00 0.00 0.00 92 1006.1
20260831114525 55 74 0.0 0.0 0.00 0.00 0.00 92 1006.0
20260831114019 54 74 0.0 0.0 0.00 0.00 0.00 92 1006.0
20260831113514 54 74 0.0 0.0 0.00 0.00 0.00 92 1005.9
20260831111956 54 74 0.0 0.0 0.00 0.00 0.00 92 1005.8
20260831111450 54 74 0.0 0.0 0.00 0.00 0.00 92 1005.7
20260831105932 54 74 0.0 0.0 0.00 0.00 0.00 92 1005.8
20260831105425 54 74 0.0 0.0 0.00 0.00 0.00 92 1005.7
20260831104414 54 74 0.0 0.0 0.00 0.00 0.00 91 1005.7
20260831103907 54 74 0.0 0.0 0.00 0.00 0.00 91 1005.6
20260831103402 54 74 0.0 0.0 0.00 0.00 0.00 91 1005.5
20260831102855 54 74 0.0 0.0 0.00 0.00 0.00 91 1005.5
20260831102350 54 74 0.0 0.0 0.00 0.00 0.00 91 1005.5
20260831101843 54 74 0.0 0.0 0.00 0.00 0.00 91 1005.5
20260831101338 54 74 0.0 0.0 0.00 0.00 0.00 91 1005.5
20260831100831 54 74 0.0 0.0 0.00 0.00 0.00 91 1005.5
20260831100326 54 74 0.0 0.0 0.00 0.00 0.00 91 1005.5
20260831095820 54 74 0.0 0.0 0.00 0.00 0.00 91 1005.5
20260831095314 54 74 0.0 0.0 0.00 0.00 0.00 91 1005.4
20260831094808 54 74 0.0 0.0 0.00 0.00 0.00 91 1005.3
20260831094301 55 74 0.0 0.0 0.00 0.00 0.00 91 1005.1
20260831093756 55 74 0.0 1.0 0.00 0.00 0.00 91 1005.1
20260831092744 55 74 0.0 0.0 0.00 0.00 0.00 91 1005.1
20260831091732 55 74 0.0 1.0 0.00 0.00 0.00 91 1005.1
20260831091225 55 74 0.0 1.0 0.00 0.00 0.00 91 1005.1
20260831090719 55 74 0.0 1.0 0.00 0.00 0.00 91 1005.1
20260831090218 56 74 0.0 1.0 0.00 0.00 0.00 91 1005.0
20260831085708 56 74 0.0 1.0 0.00 0.00 0.00 91 1005.0
20260831085202 56 74 0.0 0.0 0.00 0.00 0.00 90 1005.0
20260831084656 56 74 0.0 0.0 0.00 0.00 0.00 91 1004.9
20260831084149 56 74 0.0 0.0 0.00 0.00 0.00 90 1004.8
20260831083644 56 74 0.0 0.0 0.00 0.00 0.00 90 1004.7
20260831083137 56 74 0.0 0.0 0.00 0.00 0.00 90 1004.6
20260831082632 56 74 0.0 0.0 0.00 0.00 0.00 90 1004.6
20260831082126 56 74 0.0 0.0 0.00 0.00 0.00 90 1004.6
20260831081619 56 74 0.0 0.0 0.00 0.00 0.00 90 1004.6
20260831081113 57 74 0.0 0.0 0.00 0.00 0.00 90 1004.6
20260831080108 57 74 0.0 0.0 0.00 0.00 0.00 90 1004.6
20260831075608 57 74 0.0 0.0 0.00 0.00 0.00 90 1004.6
20260831074606 57 74 0.0 0.0 0.00 0.00 0.00 90 1004.5
20260831073603 58 74 0.0 0.0 0.00 0.00 0.00 90 1004.3
20260831073104 58 74 0.0 0.0 0.00 0.00 0.00 90 1004.3
20260831072603 58 74 0.0 0.0 0.00 0.00 0.00 90 1004.2
20260831071601 58 74 0.0 0.0 0.00 0.00 0.00 90 1004.1
20260831071059 58 74 0.0 0.0 0.00 0.00 0.00 90 1004.1
20260831070558 58 74 0.0 0.0 0.00 0.00 0.00 90 1004.1
20260831070059 59 74 0.0 0.0 0.00 0.00 0.00 90 1004.1
20260831065057 59 74 0.0 0.0 0.00 0.00 0.00 90 1003.9
20260831064557 59 74 0.0 0.0 0.00 0.00 0.00 90 1004.0
20260831064057 59 74 0.0 0.0 0.00 0.00 0.00 90 1003.9
20260831063553 60 74 0.0 0.0 0.00 0.00 0.00 90 1004.0
20260831063053 60 74 0.0 0.0 0.00 0.00 0.00 90 1004.0
20260831062550 60 74 0.0 0.0 0.00 0.00 0.00 90 1003.9
20260831062049 60 74 0.0 0.0 0.00 0.00 0.00 90 1004.0
20260831061549 60 74 0.0 0.0 0.00 0.00 0.00 90 1003.9
20260831061048 60 74 0.0 0.0 0.00 0.00 0.00 90 1003.9
20260831060550 61 74 0.0 0.0 0.00 0.00 0.00 90 1003.8
20260831060048 61 74 0.0 0.0 0.00 0.00 0.00 90 1003.8
20260831055550 61 74 0.0 0.0 0.00 0.00 0.00 90 1003.8
20260831055048 61 74 0.0 0.0 0.00 0.00 0.00 91 1003.8
20260831053545 62 74 0.0 0.0 0.00 0.00 0.00 90 1003.7
20260831053046 62 74 0.0 0.0 0.00 0.00 0.00 90 1003.7
20260831052045 62 74 0.0 0.0 0.00 0.00 0.00 90 1003.7
20260831051544 62 74 0.0 0.0 0.00 0.00 0.00 90 1003.6
20260831051045 62 74 0.0 0.0 0.00 0.00 0.00 90 1003.5
20260831050544 62 74 0.0 0.0 0.00 0.00 0.00 90 1003.5
20260831050045 63 74 0.0 0.0 0.00 0.00 0.00 90 1003.5
20260831045542 63 74 0.0 0.0 0.00 0.00 0.00 91 1003.4
20260831044539 63 74 0.0 1.0 0.00 0.00 0.00 91 1003.4
20260831044036 63 74 0.0 1.0 0.00 0.00 0.00 91 1003.4
20260831043535 63 74 0.0 1.0 0.00 0.00 0.00 90 1003.4
20260831043034 63 74 0.0 1.0 0.00 0.00 0.00 90 1003.3
20260831042530 63 74 0.0 1.0 0.00 0.00 0.00 90 1003.3
20260831041024 63 74 0.0 1.0 0.00 0.00 0.00 90 1003.3
20260831040522 64 74 0.0 0.0 0.00 0.00 0.00 90 1003.2
20260831040021 64 74 0.0 0.0 0.00 0.00 0.00 90 1003.2
20260831035518 64 74 0.0 0.0 0.00 0.00 0.00 90 1003.1
20260831035019 64 74 0.0 0.0 0.00 0.00 0.00 90 1003.2
20260831034517 64 74 0.0 0.0 0.00 0.00 0.00 90 1003.2
20260831034018 64 74 0.0 0.0 0.00 0.00 0.00 90 1003.2
20260831033019 65 74 0.0 1.0 0.00 0.00 0.00 90 1003.2
20260831032518 65 74 0.0 1.0 0.00 0.00 0.00 90 1003.3
20260831032017 65 74 0.0 0.0 0.00 0.00 0.00 90 1003.2
20260831031517 65 74 0.0 1.0 0.00 0.00 0.00 90 1003.2
20260831031017 65 74 0.0 1.0 0.00 0.00 0.00 90 1003.1
20260831030518 65 74 0.0 1.0 0.00 0.00 0.00 90 1003.2
20260831030020 65 74 0.0 1.0 0.00 0.00 0.00 90 1003.2
20260831025516 65 74 0.0 1.0 0.00 0.00 0.00 90 1003.2
20260831025011 65 74 0.0 0.0 0.00 0.00 0.00 90 1003.3
20260831024505 65 74 0.0 1.0 0.00 0.00 0.00 90 1003.2
20260831023959 66 74 0.0 1.0 0.00 0.00 0.00 90 1003.2
20260831023453 66 74 0.0 0.0 0.00 0.00 0.00 89 1003.2
20260831022441 66 74 0.0 0.0 0.00 0.00 0.00 89 1003.1
20260831021935 66 74 0.0 0.0 0.00 0.00 0.00 89 1003.1
20260831021429 66 74 0.0 0.0 0.00 0.00 0.00 89 1003.0
20260831020417 67 74 0.0 1.0 0.00 0.00 0.00 89 1003.0
20260831015405 67 74 0.0 0.0 0.00 0.00 0.00 89 1002.6
20260831014859 67 74 0.0 0.0 0.00 0.00 0.00 88 1002.7
20260831014353 67 74 0.0 0.0 0.00 0.00 0.00 88 1002.6
20260831013847 68 74 0.0 0.0 0.00 0.00 0.00 88 1002.7
20260831013340 68 74 0.0 1.0 0.00 0.00 0.00 88 1002.7
20260831012835 68 74 0.0 1.0 0.00 0.00 0.00 88 1002.7
20260831012328 68 74 0.0 3.0 0.00 0.00 0.00 87 1002.7
20260831011822 68 74 0.0 3.0 0.00 0.00 0.00 86 1002.7
20260831011316 68 30 0.0 1.0 0.00 0.00 0.00 86 1002.7
20260831010810 68 30 0.0 0.0 0.00 0.00 0.00 86 1002.3
20260831010305 68 30 0.0 0.0 0.00 0.00 0.00 86 1002.2
20260831005758 68 30 0.0 0.0 0.00 0.00 0.00 86 1002.1
20260831005253 68 30 0.0 0.0 0.00 0.00 0.00 85 1002.0
20260831004747 69 30 0.0 0.0 0.00 0.00 0.00 86 1002.0
20260831004240 69 30 0.0 0.0 0.00 0.00 0.00 86 1001.9
20260831003734 69 30 0.0 0.0 0.00 0.00 0.00 85 1001.9
20260831003229 69 30 0.0 0.0 0.00 0.00 0.00 85 1001.7
20260831002723 69 30 0.0 0.0 0.00 0.00 0.00 85 1001.6
20260831002217 69 30 0.0 0.0 0.00 0.00 0.00 85 1001.6
20260831000659 69 30 0.0 0.0 0.00 0.00 0.00 84 1001.3
20260831000154 69 30 0.0 0.0 0.00 0.00 0.00 84 1001.3
20260830235647 69 30 0.0 0.0 0.00 0.00 0.00 84 1001.3
20260830235141 70 30 0.0 0.0 0.00 0.00 0.00 83 1001.2
20260830234129 70 30 0.0 0.0 0.00 0.00 0.00 83 1001.0
20260830233623 70 30 0.0 0.0 0.00 0.00 0.00 82 1001.1
20260830233117 71 30 0.0 0.0 0.00 0.00 0.00 82 1001.1
20260830232610 71 30 0.0 0.0 0.00 0.00 0.00 81 1001.0
20260830231559 71 30 0.0 0.0 0.00 0.00 0.00 81 1001.0
20260830231053 71 30 0.0 0.0 0.00 0.00 0.00 80 1001.0
20260830230546 71 30 0.0 0.0 0.00 0.00 0.00 80 1001.0
20260830230040 72 30 0.0 0.0 0.00 0.00 0.00 80 1001.0
20260830225535 72 30 0.0 0.0 0.00 0.00 0.00 79 1001.0
20260830225029 72 30 0.0 0.0 0.00 0.00 0.00 79 1000.9
20260830224017 73 30 0.0 0.0 0.00 0.00 0.00 79 1001.1
20260830223511 73 30 0.0 0.0 0.00 0.00 0.00 79 1001.1
20260830223005 73 30 0.0 0.0 0.00 0.00 0.00 78 1001.3
20260830222501 73 30 0.0 0.0 0.00 0.00 0.00 79 1001.2
20260830222000 73 30 0.0 0.0 0.00 0.00 0.00 78 1001.3
20260830221501 73 30 0.0 0.0 0.00 0.00 0.00 78 1001.2
20260830221001 74 30 0.0 0.0 0.00 0.00 0.00 77 1001.3
20260830220002 74 30 0.0 0.0 0.00 0.00 0.00 76 1001.3
20260830215459 74 30 0.0 0.0 0.00 0.00 0.00 76 1001.2
20260830214455 75 30 0.0 0.0 0.00 0.00 0.00 75 1001.3
20260830213954 75 30 0.0 0.0 0.00 0.00 0.00 75 1001.3
20260830213450 75 30 0.0 0.0 0.00 0.00 0.00 72 1001.2
20260830212948 75 30 0.0 0.0 0.00 0.00 0.00 73 1001.3
20260830212449 75 30 0.0 0.0 0.00 0.00 0.00 71 1001.4
20260830211945 75 30 0.0 0.0 0.00 0.00 0.00 72 1001.5
20260830211443 76 30 0.0 0.0 0.00 0.00 0.00 71 1001.4
20260830210940 76 30 0.0 0.0 0.00 0.00 0.00 71 1001.4
20260830210439 76 30 0.0 0.0 0.00 0.00 0.00 70 1001.5
20260830205937 76 30 0.0 0.0 0.00 0.00 0.00 72 1001.6
20260830205435 76 30 0.0 0.0 0.00 0.00 0.00 70 1001.6
20260830204933 76 30 0.0 0.0 0.00 0.00 0.00 69 1001.6
20260830203428 77 30 0.0 2.0 0.00 0.00 0.00 68 1001.7
20260830202927 77 30 0.0 2.0 0.00 0.00 0.00 66 1001.7
20260830202426 77 30 0.0 2.0 0.00 0.00 0.00 69 1001.6